Altoona, PA

10:41 AM EDT on September 16, 2019 (GMT -0400)
Altoona-Blair County

Weather History for KAOO - August, 2019

Change the Weather History Date:

Monday, August 19, 2019

  Actual Average Record
Temperature  
Mean Temperature 77 °F 69 °F  
Max Temperature 89 °F 80 °F 91 °F (1983)
Min Temperature 64 °F 58 °F 45 °F (1977)
Degree Days  
Heating Degree Days 0 1  
Month to date heating degree days 0 11  
Since 1 June heating degree days 38 79  
Since 1 July heating degree days 0 21  
Cooling Degree Days 12 5  
Month to date cooling degree days 135 106  
Year to date cooling degree days 597 433  
Since 1 June cooling degree days 528 400  
Growing Degree Days 26 (Base 50)    
Moisture  
Dew Point 63 °F    
Average Humidity 68    
Maximum Humidity 93    
Minimum Humidity 43    
Precipitation  
Precipitation 0.00 in 0.10 in 1.84 in (1970)
Month to date precipitation 2.04 1.81  
Year to date precipitation 28.94 22.73  
Sea Level Pressure  
Sea Level Pressure 30.03 in    
Wind  
Wind Speed 3 mph (WNW)    
Max Wind Speed 10 mph    
Max Gust Speed 15 mph    
Visibility 10 miles    
Events      
T = Trace of Precipitation, MM = Missing Value Source: NWS Daily Summary

Daily Weather History Graph

Daily Weather History Graph

Search for Another Location

Airport or City:

Astronomy

Aug. 19, 2019 Rise Set
Actual Time 6:28 AM EDT 8:05 PM EDT
Civil Twilight 5:59 AM EDT 8:33 PM EDT
Nautical Twilight 5:24 AM EDT 9:08 PM EDT
Astronomical Twilight 4:47 AM EDT 9:45 PM EDT
Moon 10:25 PM EDT (8/19) 10:07 AM EDT (8/19)
Length of Visible Light 14h 34m
Length of Day
13h 37m
Waning Gibbous, 85% of the Moon is Illuminated
Aug 19
Waning Gibbous
Aug 23
Last Quarter
Aug 30
New
Sep 5
First Quarter
Sep 14
Full

Hourly Weather History & Observations

Time (EDT) Temp. Heat Index Dew Point Humidity Pressure Visibility Wind Dir Wind Speed Gust Speed Precip Events Conditions
12:53 AM 66.0 °F - 63.0 °F 90% 29.99 in 9.0 mi South 3.5 mph - N/A   Clear
1:53 AM 64.9 °F - 62.1 °F 90% 29.98 in 10.0 mi Calm Calm - N/A   Clear
2:53 AM 64.9 °F - 62.1 °F 90% 29.98 in 9.0 mi Calm Calm - N/A   Clear
3:53 AM 64.0 °F - 62.1 °F 93% 29.98 in 10.0 mi Calm Calm - N/A   Clear
4:53 AM 64.9 °F - 62.1 °F 90% 29.99 in 10.0 mi Calm Calm - N/A   Partly Cloudy
5:53 AM 64.9 °F - 62.1 °F 90% 30.02 in 10.0 mi Calm Calm - N/A   Clear
6:53 AM 66.9 °F - 63.0 °F 87% 30.02 in 10.0 mi South 3.5 mph - N/A   Clear
7:53 AM 69.1 °F - 64.9 °F 87% 30.03 in 10.0 mi SW 5.8 mph - N/A   Clear
8:53 AM 71.1 °F - 64.9 °F 81% 30.04 in 10.0 mi WSW 4.6 mph - N/A   Clear
9:53 AM 73.9 °F - 64.9 °F 73% 30.06 in 10.0 mi NW 6.9 mph - N/A   Clear
10:53 AM 78.1 °F - 64.0 °F 62% 30.06 in 10.0 mi Variable 3.5 mph - N/A   Mostly Cloudy
11:53 AM 81.0 °F 82.5 °F 64.0 °F 56% 30.06 in 10.0 mi WNW 8.1 mph - N/A   Clear
12:53 PM 82.9 °F 84.4 °F 64.0 °F 53% 30.05 in 10.0 mi Variable 4.6 mph - N/A   Clear
1:53 PM 86.0 °F 87.3 °F 64.0 °F 48% 30.04 in 10.0 mi Variable 4.6 mph - N/A   Clear
2:53 PM 87.1 °F 87.8 °F 63.0 °F 44% 30.04 in 10.0 mi Calm Calm - N/A   Clear
3:53 PM 87.1 °F 87.5 °F 62.1 °F 43% 30.02 in 10.0 mi NNW 3.5 mph - N/A   Clear
4:53 PM 89.1 °F 90.3 °F 64.0 °F 43% 30.03 in 10.0 mi NNW 8.1 mph - N/A   Mostly Cloudy
5:53 PM 87.1 °F 87.8 °F 63.0 °F 44% 30.02 in 10.0 mi WNW 9.2 mph - N/A   Clear
6:53 PM 84.9 °F 86.1 °F 64.0 °F 49% 30.02 in 10.0 mi NNW 5.8 mph - N/A   Clear
7:53 PM 80.1 °F 81.5 °F 63.0 °F 56% 30.04 in 10.0 mi NNW 5.8 mph - N/A   Clear
8:53 PM 73.9 °F - 64.0 °F 71% 30.06 in 10.0 mi Calm Calm - N/A   Clear
9:53 PM 72.0 °F - 64.0 °F 76% 30.08 in 10.0 mi Calm Calm - N/A   Clear
10:53 PM 71.1 °F - 64.0 °F 78% 30.09 in 10.0 mi Calm Calm - N/A   Clear
11:53 PM 70.0 °F - 64.9 °F 84% 30.09 in 10.0 mi Calm Calm - N/A   Mostly Cloudy